Theta_e
360 364 366 364 364 365 366 363 362 363 362 361 365 363 362 360 366 360 365 364 360 357 359 360 361 364 361 361 362 358 364 363 357 361 363 362 363 361 363 363 362 362 360 360 359 359 357 356 357 358 358 359 357 355 357 356 354 353 356 355 354 354 355 355 355 356 355 355 355 354 354 354 354 354 354 354 354 354 354 353 353 353 354 355 355
364 371 363 367 367 365 365 366 364 365 362 363 364 366 363 366 362 362 358 362 361 362 361 356 353 355 356 355 356 354 358 359 357 359 365 362 364 361 364 363 362 362 362 360 359 358 358 358 357 358 358 358 357 354 354 352 353 352 350 349 354 355 355 355 356 356 356 356 355 355 355 355 355 355 355 355 355 355 354 354 354 354 354 353 353
364 366 366 364 368 367 363 364 363 362 367 363 366 365 364 365 364 359 358 362 363 361 362 357 357 353 353 355 355 356 355 359 355 354 355 363 364 362 363 365 363 363 363 361 359 358 358 359 358 358 357 358 358 355 351 353 352 351 351 350 350 354 356 356 356 355 356 356 356 356 356 355 355 355 355 355 355 355 355 355 355 355 355 355 354
369 369 365 366 367 367 364 364 363 363 366 360 364 364 365 364 363 363 363 363 362 358 359 354 352 351 355 349 351 350 354 354 349 353 355 359 361 363 363 363 363 363 361 362 360 359 359 359 359 358 358 358 358 356 355 351 350 351 352 352 351 353 353 354 356 356 356 356 356 356 356 356 356 356 356 356 356 356 356 356 356 356 356 356 356
376 369 365 366 365 365 365 364 366 366 362 363 364 366 367 362 364 364 361 360 355 352 354 354 348 348 356 354 349 350 352 356 361 359 356 361 361 361 363 362 362 362 363 362 362 360 360 359 359 358 358 359 358 358 356 354 352 350 352 353 353 353 353 352 354 355 356 357 356 356 356 356 356 356 356 356 356 356 356 356 356 356 356 356 356
372 370 368 366 362 364 365 364 366 364 363 364 364 364 364 362 360 360 357 357 350 355 358 354 353 356 351 350 357 355 359 361 354 359 358 354 359 356 358 364 362 360 361 363 362 361 361 360 360 359 359 358 358 357 357 357 355 353 353 353 353 354 354 353 354 354 354 355 355 357 356 356 356 356 356 356 356 356 356 356 356 356 356 356 356
371 373 367 366 364 363 363 366 365 364 363 365 364 363 362 360 356 360 356 355 353 347 346 352 355 355 359 356 358 360 363 356 358 360 359 363 364 353 362 359 362 363 362 361 363 362 362 361 361 360 360 359 358 357 357 357 357 356 355 353 352 353 354 354 353 353 354 354 354 355 355 357 356 356 356 356 356 356 356 356 356 356 356 356 356
370 371 369 368 364 363 364 365 364 363 366 366 363 361 359 357 358 351 354 347 352 346 351 354 354 353 356 367 362 361 360 363 359 363 352 361 361 361 359 362 358 363 365 361 360 361 362 362 362 362 361 360 359 358 357 357 357 357 356 355 354 354 354 353 353 353 353 354 355 355 355 356 356 356 356 356 357 356 356 356 356 356 356 356 356
372 373 371 367 367 365 365 363 362 361 362 363 360 361 362 347 355 357 353 354 346 344 351 356 349 354 358 348 355 357 362 359 358 355 359 355 355 360 357 359 363 355 357 359 361 361 361 363 362 359 359 359 359 358 358 358 358 357 357 356 355 354 354 355 355 354 353 353 354 354 355 356 356 356 356 356 357 357 357 356 357 357 357 357 356
370 372 372 368 367 366 363 364 360 361 361 362 357 358 354 355 351 356 356 350 350 346 350 347 347 346 347 347 353 354 355 360 361 360 362 355 359 357 359 362 357 358 356 360 359 360 359 360 361 360 359 358 358 358 358 357 357 356 357 356 355 355 355 355 355 354 354 354 354 354 355 356 356 356 356 356 356 356 357 357 357 357 357 357 357
367 368 370 367 367 368 364 363 363 364 360 357 356 357 352 358 352 352 354 354 355 350 352 354 350 352 347 349 355 361 363 358 359 358 357 351 351 357 354 359 358 364 357 356 359 359 359 359 358 361 359 359 358 358 357 357 357 357 357 357 356 355 355 356 355 355 355 355 355 355 354 355 355 355 355 355 355 355 355 356 356 357 357 357 357
368 367 369 371 367 364 363 362 362 361 360 355 356 355 352 352 353 350 351 352 353 351 351 351 353 351 350 352 358 358 358 358 356 351 353 351 351 354 351 354 354 359 352 358 355 357 357 358 361 358 356 360 359 356 355 355 357 357 357 357 356 356 356 355 355 355 355 355 355 355 355 355 355 355 355 355 355 355 355 355 355 356 356 357 356
370 371 369 368 370 365 361 362 360 358 361 358 359 354 362 355 354 355 354 352 352 353 350 353 351 350 350 349 354 355 351 356 353 347 344 345 348 353 355 350 350 352 351 358 357 357 354 356 356 358 360 360 357 354 356 356 357 356 356 355 355 355 355 355 355 355 355 355 354 354 354 354 354 354 355 355 355 355 355 355 355 356 356 356 357
370 371 369 368 368 365 362 361 361 366 360 364 358 355 356 350 353 351 357 352 351 347 352 350 346 344 343 346 350 354 356 347 343 342 342 344 343 347 350 346 342 347 356 356 359 352 348 351 351 355 357 358 355 354 355 355 354 354 352 352 352 353 352 353 355 355 354 354 355 353 353 353 353 354 354 355 355 355 355 355 355 355 356 356 356
368 369 367 364 364 364 362 363 359 366 357 357 357 360 358 351 345 353 351 354 354 355 355 350 343 343 343 341 342 339 347 353 344 354 339 340 340 340 345 341 344 352 357 356 347 349 346 347 351 355 358 353 355 355 355 353 354 353 352 352 352 353 354 354 354 352 352 352 352 352 352 352 353 354 354 354 354 354 355 355 355 355 355 355 356
368 366 367 367 365 363 361 362 360 364 360 356 358 356 355 356 350 356 354 346 346 347 354 352 346 345 337 336 336 335 336 339 342 349 336 337 337 336 339 338 338 348 350 338 339 350 346 347 348 353 355 354 352 352 353 353 353 352 350 348 346 346 349 350 351 351 352 352 352 351 351 351 352 352 354 354 354 354 354 354 354 354 354 354 354
363 363 366 365 365 364 362 361 360 360 358 357 356 357 352 347 355 352 349 346 338 346 350 351 348 351 345 340 337 335 332 334 331 348 338 335 334 336 341 335 337 346 355 342 354 351 343 344 350 351 353 353 350 350 351 351 351 348 343 343 341 342 343 345 348 348 348 348 348 347 348 350 351 352 354 353 353 353 354 353 354 354 353 353 353
364 365 365 365 364 364 363 361 359 360 360 359 360 354 354 350 354 350 354 352 344 341 345 348 351 350 349 349 343 336 335 338 338 334 349 339 344 334 339 334 338 342 351 342 345 355 351 344 348 350 348 346 345 341 343 340 343 343 343 341 339 340 340 342 343 344 344 344 344 344 345 345 347 348 350 351 353 353 353 352 353 353 353 353 353
362 365 362 363 363 364 364 363 360 359 359 359 355 352 346 346 352 351 351 351 354 345 343 344 352 355 347 348 343 342 339 338 334 337 334 344 341 337 333 335 336 339 339 338 336 336 334 343 340 339 345 344 344 343 339 339 338 341 341 340 338 338 339 339 341 341 341 341 341 342 342 343 343 344 345 347 349 350 351 352 353 353 353 353 353
363 364 364 363 363 363 363 362 361 357 357 357 360 352 356 351 351 348 352 353 354 347 344 346 346 343 345 345 345 348 348 347 341 337 336 330 341 340 340 336 336 333 335 330 331 332 334 339 345 339 343 347 348 343 342 340 340 339 340 339 338 336 336 337 339 340 338 339 339 340 340 341 341 342 343 344 345 346 347 349 351 352 353 353 353
367 362 364 362 363 363 361 363 360 361 356 352 352 350 352 351 350 351 353 350 353 348 348 349 343 342 349 345 346 349 349 341 343 345 339 333 333 335 337 334 341 343 333 340 332 335 335 344 336 339 344 340 344 345 341 343 342 341 340 339 338 338 336 335 336 337 336 337 338 338 339 340 340 341 341 342 342 343 344 345 346 347 349 351 353
364 365 363 363 360 362 360 357 357 349 351 351 352 352 350 351 349 350 351 350 353 353 351 352 348 346 349 345 345 350 344 340 342 341 341 343 333 330 332 334 337 339 347 333 342 343 343 333 338 339 344 341 338 339 344 341 341 341 337 339 339 338 337 336 335 335 335 335 336 337 338 338 339 340 339 340 340 341 342 343 343 344 345 347 348
359 363 363 361 363 360 355 354 354 356 352 358 353 346 346 348 351 352 352 354 347 351 348 350 350 349 348 345 346 341 342 335 340 337 339 338 337 329 326 330 326 333 344 336 343 341 345 338 340 333 333 337 343 343 342 344 340 341 341 338 340 339 339 338 336 336 335 335 336 336 337 337 338 338 338 338 339 339 340 340 341 342 343 343 344
362 359 357 353 361 358 358 355 355 354 354 362 354 351 346 350 351 352 351 352 352 353 353 349 347 349 345 343 339 345 348 345 339 345 339 337 336 332 331 336 335 335 345 343 343 344 340 341 337 339 342 344 345 350 344 344 342 341 341 342 342 342 341 340 338 336 335 336 336 336 336 336 337 337 338 337 337 337 338 338 338 339 340 340 341
362 358 353 356 358 356 356 356 354 355 353 354 358 356 353 351 349 349 350 349 351 349 351 348 348 346 346 346 346 343 347 348 343 342 345 341 342 336 332 332 334 334 341 341 339 339 346 339 346 339 348 345 343 350 348 345 345 344 341 344 345 345 344 343 342 340 338 337 337 337 338 338 337 337 337 337 338 337 337 337 337 337 338 337 338
355 359 354 355 356 357 355 355 355 357 355 353 357 351 353 352 349 348 347 349 350 350 348 346 349 350 348 342 341 345 344 345 344 340 336 340 339 334 338 339 336 331 337 340 347 340 340 342 342 347 337 338 339 343 343 340 342 348 348 341 343 343 343 342 342 341 340 339 338 338 337 337 338 338 338 337 337 337 337 336 336 337 337 337 337
358 358 361 358 356 355 355 353 354 353 355 353 353 352 351 352 350 347 348 348 350 349 347 345 345 346 348 348 346 346 343 343 343 339 345 342 340 337 335 331 331 332 332 342 342 334 333 340 338 338 348 342 342 341 343 341 343 350 348 339 338 341 340 341 340 341 340 340 340 339 338 338 338 338 337 337 337 337 337 336 335 335 335 335 336
360 357 359 357 356 354 353 352 354 352 353 352 352 349 349 351 352 349 348 348 348 346 348 349 345 351 350 350 349 343 344 345 347 347 345 345 342 344 341 337 329 325 331 331 332 334 339 336 339 339 345 345 342 343 345 344 339 346 347 339 338 338 339 339 340 340 339 339 339 338 339 339 338 338 338 337 337 338 338 336 336 336 336 335 335
357 358 356 357 356 354 351 350 352 352 351 352 351 351 348 350 350 351 349 348 349 347 348 347 349 342 343 341 343 346 347 350 347 345 348 350 347 350 345 339 337 330 326 326 329 330 334 331 332 344 348 349 346 341 342 340 342 341 341 342 342 343 340 338 339 338 339 338 337 337 337 338 337 337 338 338 338 337 337 336 337 336 335 335 335
356 355 355 354 354 355 351 351 351 350 350 349 350 353 348 350 349 351 350 353 349 350 352 352 346 346 348 350 346 346 346 345 343 342 344 346 345 344 344 342 341 333 331 326 327 333 332 338 332 345 342 343 349 351 346 344 345 341 338 336 336 336 337 337 338 338 338 337 336 335 336 336 336 336 335 335 336 336 337 337 336 336 337 335 335
357 356 355 352 353 352 352 350 350 350 350 348 350 350 351 348 348 347 349 349 349 347 350 346 344 347 349 348 350 349 350 347 350 349 349 346 345 346 344 344 342 339 334 333 326 333 336 333 341 339 342 347 346 344 345 344 345 343 342 341 340 341 340 339 339 337 336 336 335 334 333 332 333 334 333 333 334 335 335 336 336 336 336 335 335
358 356 354 352 351 349 349 347 347 348 348 348 348 349 351 350 346 345 346 348 346 347 346 346 344 345 345 344 345 345 347 349 348 347 348 346 345 345 344 343 343 341 341 337 331 329 339 337 339 342 342 339 345 339 338 340 343 345 341 341 340 342 339 338 340 338 335 334 334 333 331 330 331 333 333 333 333 335 335 335 333 333 334 335 334
357 355 353 352 351 350 348 347 347 346 348 348 347 349 348 347 349 346 346 345 344 345 345 346 345 345 345 344 346 346 347 347 346 344 344 345 345 344 344 344 342 343 341 338 333 332 337 342 341 340 341 343 339 343 340 341 341 342 343 340 340 339 339 339 340 340 337 334 332 332 331 331 331 332 332 333 333 335 334 335 333 332 332 332 332
358 354 353 353 351 350 347 348 348 348 349 349 348 347 347 346 345 345 343 345 344 344 344 343 347 345 345 345 344 346 348 344 343 343 343 342 341 341 342 342 342 343 342 339 337 334 332 338 340 342 341 343 336 344 339 339 338 341 340 341 341 340 339 339 339 339 339 335 332 330 330 330 331 331 331 332 332 332 332 332 331 330 330 329 329
358 355 353 352 352 350 347 348 349 348 349 347 347 347 347 346 343 344 344 345 345 344 343 343 343 344 344 344 342 343 344 342 342 342 342 342 342 341 342 345 341 340 341 341 336 332 331 332 337 336 338 342 340 340 343 342 342 342 338 338 337 338 339 338 338 338 338 335 332 330 329 329 330 330 330 332 331 330 329 328 328 328 327 326 326
357 356 355 353 352 350 347 347 349 347 348 347 347 347 347 345 343 343 344 343 344 344 342 342 342 342 341 342 341 341 342 342 342 343 344 343 343 343 342 342 342 340 341 342 340 336 334 332 334 335 337 337 339 341 342 341 338 338 339 338 339 337 337 338 337 337 336 334 332 331 330 329 328 328 327 328 327 326 325 324 324 325 325 324 324
358 356 355 353 351 350 347 347 347 346 346 348 347 345 346 345 344 344 344 344 343 344 343 343 344 343 342 341 342 342 343 342 342 341 342 341 342 343 342 341 341 341 341 341 342 342 337 334 335 338 339 338 339 339 340 337 338 338 338 337 337 337 336 337 336 336 334 332 332 331 330 329 328 328 327 327 326 326 325 324 323 323 323 323 323
359 356 355 351 350 348 348 349 347 346 346 347 347 345 345 345 345 345 344 343 343 343 343 344 343 343 343 343 343 344 344 341 340 342 342 341 342 342 341 340 341 344 342 343 344 340 338 334 333 333 336 336 336 336 338 340 337 335 333 333 334 334 335 336 335 335 336 335 335 336 333 330 329 328 327 327 327 326 325 324 323 322 321 321 319
357 356 355 351 349 349 348 350 347 346 346 347 346 345 344 343 344 344 343 343 342 342 343 342 342 343 342 343 343 344 343 342 341 340 341 342 341 339 341 342 343 341 341 342 339 338 337 335 334 334 334 336 335 333 338 340 338 334 329 329 329 333 336 336 334 336 335 334 335 334 333 332 332 330 325 324 325 326 326 325 323 322 321 320 318
356 356 354 351 349 348 348 349 348 346 345 346 346 345 343 342 343 344 344 342 341 342 342 343 342 341 342 342 339 342 342 343 342 342 343 342 342 340 346 346 344 340 338 338 338 337 335 333 332 331 333 333 333 335 337 338 333 331 332 330 327 329 330 333 334 333 334 334 332 332 333 332 331 330 327 326 326 326 326 326 326 327 325 322 320
358 356 355 351 348 348 349 349 347 346 345 345 345 344 341 341 343 344 343 342 340 341 342 341 342 342 341 341 340 340 342 349 347 345 345 344 343 343 345 343 342 340 337 336 335 334 332 332 330 331 330 329 330 331 330 331 329 327 331 334 329 330 331 330 332 335 335 333 332 332 331 332 331 331 331 331 333 334 332 329 329 331 328 323 321
359 358 355 350 347 348 349 347 346 346 345 345 340 334 337 341 342 343 343 342 341 341 342 341 341 341 342 341 341 345 348 348 349 348 343 340 339 340 342 342 340 339 337 335 334 333 332 330 329 328 326 326 326 328 328 330 330 333 333 332 328 329 330 328 329 331 335 333 330 328 330 334 331 330 331 330 332 334 332 331 331 331 330 326 324
360 359 357 349 347 348 348 346 344 344 343 342 330 330 331 336 342 343 341 342 344 342 341 343 342 341 342 342 343 345 348 347 343 346 344 341 341 339 336 336 338 338 334 332 331 332 331 329 330 329 327 326 328 330 329 328 331 330 328 331 331 329 325 322 320 326 333 332 330 328 327 332 331 328 329 329 330 330 330 330 330 330 327 325 324
361 360 357 351 349 350 348 344 341 341 341 335 326 329 331 331 338 342 343 342 341 340 341 340 340 341 341 340 341 342 342 342 342 346 341 339 335 335 334 332 332 331 332 334 332 331 330 328 327 327 328 326 327 329 329 329 329 329 330 329 328 326 324 323 323 321 328 333 328 325 324 328 329 327 326 327 329 329 329 328 327 327 325 324 324
363 359 355 353 350 349 346 343 341 340 341 331 325 327 328 329 331 339 342 340 338 339 340 339 339 340 343 343 342 343 349 352 346 345 345 344 340 334 332 332 331 329 326 325 326 332 331 329 327 327 328 328 328 329 333 333 332 328 328 326 326 326 325 323 323 324 327 330 325 322 320 323 325 323 322 325 326 327 328 327 326 326 325 324 323
362 359 355 352 349 346 344 342 341 341 341 328 324 324 325 326 329 336 342 342 343 340 339 339 338 340 343 343 344 348 345 344 346 344 344 343 344 343 341 341 340 339 330 323 322 321 325 329 329 328 329 331 329 331 334 334 329 326 325 324 325 323 323 322 324 324 326 328 323 321 319 321 323 323 321 324 326 327 327 326 325 324 324 322 321
361 358 355 350 346 344 343 342 340 336 338 324 321 322 322 323 326 333 341 340 338 336 336 337 339 340 343 345 347 344 342 344 345 345 342 342 342 341 339 338 339 339 339 338 335 331 329 328 328 330 332 333 333 332 333 334 330 328 327 325 324 324 324 325 324 325 324 326 325 323 316 320 324 322 322 323 325 323 322 320 320 320 320 319 319
359 355 351 348 344 342 341 340 337 335 339 321 321 321 321 322 324 337 340 337 336 336 336 337 338 341 344 345 348 342 340 340 342 337 342 344 341 339 338 337 337 336 334 336 329 330 334 333 332 332 331 331 327 332 331 328 327 329 328 327 325 324 322 320 319 321 321 324 325 322 318 317 321 317 317 319 320 319 321 322 320 319 319 318 319
354 349 347 344 342 340 339 339 338 336 342 323 319 318 319 320 324 336 337 335 335 335 336 339 340 342 343 344 347 343 343 341 338 328 332 340 339 337 336 334 334 333 332 335 327 324 324 320 319 320 319 317 316 315 313 313 321 324 326 323 320 321 318 317 318 318 318 320 321 321 318 315 318 318 317 318 318 317 317 317 318 318 317 316 316
353 349 346 344 342 341 340 339 338 338 341 324 315 315 317 317 326 334 336 335 333 335 337 339 341 343 344 345 349 347 343 343 327 323 326 335 336 337 335 333 331 330 331 331 331 338 320 319 319 318 317 317 317 316 316 315 315 316 320 318 321 321 319 318 315 317 318 320 320 321 316 315 317 317 314 313 313 313 313 312 314 316 318 315 316
354 353 348 344 342 341 340 340 337 338 340 327 314 316 315 315 326 336 337 335 334 335 336 337 341 344 345 346 347 345 343 330 316 319 322 333 335 335 334 332 329 328 331 331 330 330 332 331 331 332 329 324 325 326 328 320 317 319 322 322 323 321 319 320 318 318 316 317 321 322 313 313 311 311 310 307 305 309 312 312 314 316 319 321 323
Wind_Speed
3 3 3 4 3 2 2 2 2 1 2 2 2 0 1 1 2 3 1 1 2 3 2 2 2 1 2 2 2 3 2 2 3 3 2 6 6 9 14 14 13 12 11 9 9 9 10 10 10 12 12 12 10 9 12 10 9 9 9 9 9 8 9 9 9 9 9 9 9 9 9 9 9 8 9 8 8 8 8 8 7 7 7 7 7
3 1 2 3 3 2 2 1 2 0 2 2 2 1 1 2 2 3 2 2 2 3 3 4 5 5 7 6 5 4 4 2 4 3 2 4 4 4 12 13 13 13 12 11 9 9 10 10 10 11 11 12 11 8 8 5 3 7 10 9 8 11 12 11 12 11 11 11 11 11 11 11 10 10 10 9 9 9 9 9 9 8 8 8 8
4 2 3 2 2 2 2 1 1 1 1 2 1 2 2 2 2 1 3 3 2 4 3 4 3 4 5 3 3 3 3 3 3 3 3 3 4 6 7 13 12 12 13 12 10 10 9 9 10 10 11 11 11 8 6 6 1 4 7 10 10 11 10 12 12 12 12 12 12 12 12 11 11 11 10 10 10 10 10 10 9 9 9 9 8
5 1 3 4 3 2 2 2 2 1 0 0 1 1 2 1 1 2 4 3 4 5 5 5 5 2 2 3 5 5 4 4 4 4 3 2 3 4 4 7 12 13 13 13 12 11 10 10 10 9 9 10 10 9 9 4 4 6 10 12 11 11 8 7 8 11 12 13 12 12 12 11 11 11 11 11 11 10 10 10 10 10 10 9 9
2 4 4 4 3 2 2 2 1 1 2 1 1 2 1 1 3 3 3 4 5 5 5 2 3 3 2 2 6 5 5 3 2 1 2 1 4 5 5 6 7 12 13 12 13 12 11 10 9 9 9 9 8 7 9 9 11 12 14 12 11 11 9 7 7 7 6 6 10 13 12 11 11 11 11 11 11 11 11 11 10 10 11 10 10
2 2 2 2 5 4 2 2 2 2 3 2 3 3 2 2 3 4 4 3 5 3 2 2 2 2 3 3 2 4 3 1 2 1 1 4 2 6 6 5 6 5 6 12 12 11 11 10 10 8 8 8 7 8 8 9 12 14 14 13 14 13 12 12 11 10 9 9 7 6 9 13 12 12 12 12 11 11 11 11 11 11 11 11 11
4 3 2 2 2 3 3 2 3 2 2 2 3 3 3 3 5 2 2 3 3 5 4 2 2 2 1 3 2 2 2 2 2 3 2 1 2 0 1 5 7 5 5 4 8 11 11 12 10 9 9 8 7 7 7 9 11 13 13 13 13 12 13 13 13 12 11 10 9 8 7 9 12 13 13 12 12 12 12 12 12 12 11 12 12
4 4 3 3 3 3 4 3 3 2 1 3 4 4 4 4 2 3 3 3 3 4 3 2 1 2 1 1 2 2 2 1 2 1 1 2 1 1 2 3 4 3 6 4 4 6 9 9 9 9 8 7 7 8 8 8 10 11 12 12 12 11 12 12 12 12 13 11 10 9 9 9 10 12 12 12 12 12 12 12 12 12 12 12 12
2 3 4 3 2 2 5 5 4 3 3 4 3 6 1 2 2 2 3 2 3 3 2 1 3 2 1 4 2 3 1 1 0 1 2 1 1 1 2 5 1 2 3 5 3 4 7 8 8 8 7 7 7 8 8 9 9 10 10 10 12 11 11 11 11 11 12 13 12 12 11 10 11 12 12 12 12 11 11 12 13 13 13 13 13
4 3 3 3 2 2 5 5 4 3 3 4 4 3 4 2 1 1 2 2 3 3 2 4 4 4 4 3 4 3 3 1 1 1 1 2 1 3 2 1 3 5 4 3 4 4 4 5 5 5 6 6 6 7 8 7 7 7 9 10 10 11 11 11 11 11 11 11 12 12 12 11 12 12 12 12 12 12 12 11 11 12 13 13 13
4 4 4 4 3 3 4 3 3 3 3 3 4 2 4 3 2 2 2 2 2 4 3 2 3 3 3 5 4 2 2 0 1 1 2 2 2 1 6 1 2 1 4 5 2 4 3 3 3 1 2 6 5 4 5 6 7 8 8 9 10 10 10 10 10 11 12 11 11 11 12 12 12 12 13 12 12 12 11 12 12 12 13 14 14
6 6 5 3 2 5 4 4 4 4 3 3 2 3 3 2 2 3 3 3 4 4 4 3 2 3 3 3 2 2 2 1 2 3 3 2 2 2 3 4 4 1 4 2 4 6 4 3 3 2 1 3 4 1 1 3 5 6 6 7 8 9 10 10 10 10 11 11 11 11 12 13 13 13 14 13 13 12 12 12 12 13 14 14 14
6 5 4 4 3 4 5 5 4 4 3 2 2 3 2 1 1 2 1 2 2 2 4 1 1 2 4 4 2 1 3 2 2 3 5 4 4 3 2 3 3 3 4 1 2 0 6 6 4 2 2 3 3 4 5 4 4 5 3 4 5 7 7 8 9 8 9 9 10 10 10 11 12 13 14 14 14 13 12 12 12 13 14 14 15
5 5 5 4 4 4 5 4 3 3 3 2 2 2 2 1 2 2 1 2 2 4 3 1 2 3 2 1 2 1 1 4 4 3 3 3 5 3 1 2 4 3 1 2 1 2 4 5 4 3 4 3 3 3 3 4 5 6 4 2 0 0 2 4 6 6 6 7 8 9 9 10 11 13 14 14 13 13 13 13 13 14 14 15 16
5 5 1 2 3 5 4 3 3 2 4 2 3 2 2 2 2 1 3 1 2 1 2 2 2 4 3 1 2 3 2 1 3 0 3 5 5 3 2 6 5 2 1 1 3 3 5 4 4 2 2 5 4 4 3 3 6 9 8 7 6 4 4 3 3 1 3 5 6 6 7 8 11 12 13 14 13 13 14 14 15 13 13 14 14
4 5 5 3 5 5 4 4 3 2 3 2 3 2 3 3 2 2 2 1 2 2 0 3 3 3 3 2 3 2 3 1 2 1 3 5 8 6 6 6 4 3 3 5 5 2 5 4 4 1 2 3 6 4 5 4 8 9 8 7 6 6 5 5 5 6 7 5 5 1 3 5 7 9 11 13 13 14 14 14 13 13 15 15 14
2 6 6 6 5 4 4 5 5 4 4 3 3 2 3 0 2 2 1 2 3 1 2 3 3 3 2 2 2 2 2 4 5 1 3 7 7 5 4 5 4 2 1 3 1 1 6 4 3 2 2 2 3 5 6 5 4 5 5 6 6 5 5 4 4 4 5 5 5 5 4 3 1 4 7 9 11 11 13 14 14 14 14 14 16
10 8 6 5 4 4 4 4 5 5 3 4 2 3 2 2 2 1 1 2 3 4 2 3 3 2 1 1 1 0 2 3 2 2 2 5 2 5 4 5 5 3 1 3 2 1 4 4 3 3 3 2 3 5 5 5 4 4 3 3 6 6 5 4 4 4 4 4 3 3 2 1 1 3 3 4 4 7 10 12 13 14 14 15 16
6 5 6 5 5 4 3 2 3 6 4 3 3 2 3 3 2 3 3 3 2 3 2 3 1 1 2 1 2 3 3 2 2 2 2 2 3 3 6 3 7 5 4 6 3 4 3 3 4 4 2 3 3 4 4 4 5 6 7 6 5 5 4 3 3 3 3 3 3 2 2 1 2 3 4 5 5 5 5 6 9 11 12 14 15
5 6 5 5 6 5 5 4 4 5 6 3 2 1 4 5 6 6 3 3 1 2 4 2 2 1 3 3 2 2 2 1 2 2 1 1 2 5 2 2 3 5 4 3 7 5 5 3 2 5 3 2 2 3 5 5 4 4 4 6 5 4 3 1 1 1 1 2 2 1 1 2 3 3 4 5 5 5 5 5 5 6 10 13 14
4 6 4 5 5 5 6 4 3 3 4 4 3 3 4 4 4 3 0 1 2 2 2 3 4 3 1 2 2 1 1 1 2 1 0 1 2 1 1 3 1 2 4 0 6 3 3 2 3 1 3 4 2 2 4 5 5 4 5 6 5 5 4 3 2 2 1 0 0 1 1 2 3 4 4 5 5 5 6 6 6 6 6 7 9
4 5 6 5 7 5 4 4 3 4 4 3 3 5 5 3 5 4 3 3 2 1 1 1 3 2 2 2 2 1 1 2 0 2 1 1 1 4 4 2 2 2 1 6 2 2 1 5 4 3 1 3 4 4 3 4 4 4 5 8 6 6 6 5 5 4 3 3 3 3 2 3 3 4 5 5 5 6 6 6 7 6 6 7 7
6 5 5 5 4 5 5 5 3 4 3 2 4 7 5 4 4 3 2 1 4 2 2 2 2 3 1 1 2 3 1 2 1 1 1 1 1 3 4 5 3 2 2 4 2 0 1 4 3 2 4 3 5 5 4 3 5 5 10 9 8 8 8 8 7 6 5 6 6 5 5 4 4 5 5 6 6 6 7 7 7 7 7 7 7
6 7 5 7 5 4 3 5 3 5 3 0 3 4 6 4 4 4 3 2 3 1 2 2 2 3 3 2 3 2 1 1 3 1 2 2 2 2 4 4 5 4 1 3 2 0 2 1 3 2 4 2 2 2 4 3 4 10 8 9 10 10 10 9 10 9 9 8 8 7 7 6 6 6 6 7 7 7 7 7 8 8 8 8 7
4 6 6 6 6 5 3 5 5 5 4 3 2 3 5 5 7 5 5 4 3 2 2 2 2 3 3 2 3 2 1 2 2 1 1 3 1 2 3 2 2 3 1 2 1 2 2 4 1 4 3 4 3 3 2 3 1 8 9 8 12 10 10 11 11 11 12 11 10 9 9 8 8 8 8 8 8 8 9 9 8 8 8 8 8
6 4 6 6 7 6 5 4 5 4 5 4 3 5 3 6 7 6 6 6 5 4 4 4 3 2 0 3 3 2 3 1 2 3 3 2 3 3 1 0 1 3 3 2 2 0 2 4 4 4 6 4 4 4 3 3 3 9 10 4 8 12 12 11 12 12 13 13 13 12 11 11 10 10 9 9 9 9 9 10 10 10 10 9 9
7 6 5 6 8 7 6 5 6 5 5 5 5 4 4 3 6 6 5 7 5 4 4 4 3 3 2 0 2 3 4 2 1 4 1 2 2 3 4 2 2 3 3 2 1 4 4 4 5 4 3 7 6 5 5 4 4 8 10 6 4 7 8 11 13 14 13 13 13 13 13 13 12 12 11 11 10 10 10 10 10 11 10 10 10
6 8 5 7 7 8 7 6 6 7 6 6 4 5 5 3 3 4 4 6 7 6 5 3 3 1 1 1 2 3 3 3 1 2 3 4 4 2 1 1 1 3 3 3 2 3 2 3 4 5 4 5 5 4 5 4 4 6 10 5 5 5 10 13 12 14 14 14 14 14 14 13 13 13 13 13 12 12 11 11 10 11 11 11 11
8 8 7 7 7 8 7 7 7 7 7 5 4 4 6 4 3 2 2 3 3 4 4 3 2 5 6 6 5 4 3 2 2 2 2 1 2 1 0 1 1 2 3 3 3 3 3 5 3 1 1 1 3 4 4 5 5 5 4 3 3 3 6 8 10 13 15 15 15 14 13 13 13 14 14 14 13 14 14 13 12 11 11 12 12
9 8 8 9 8 9 8 7 8 7 7 7 6 4 7 5 4 4 3 2 3 2 2 1 3 2 2 1 3 4 4 4 4 4 3 3 3 4 4 3 3 4 3 4 4 2 4 3 4 1 2 3 2 2 2 3 5 5 4 6 6 6 9 11 9 11 13 14 15 14 15 15 15 14 14 13 13 13 14 14 13 13 12 12 13
9 9 9 10 8 9 9 8 8 8 8 9 7 5 6 6 6 6 5 5 4 4 3 4 4 2 2 2 1 2 1 2 2 1 1 3 4 4 4 4 4 4 5 4 6 3 3 4 2 2 1 2 2 2 2 3 4 6 4 4 4 7 10 9 10 10 12 14 15 16 16 16 16 15 14 13 13 13 14 14 13 13 13 13 13
10 10 10 10 10 10 9 9 10 9 9 8 8 7 5 5 6 6 5 5 5 4 6 6 5 4 3 4 3 3 2 2 1 2 2 2 2 4 3 4 4 5 4 4 6 8 3 3 3 3 3 4 3 4 5 5 4 7 4 5 6 9 8 7 12 13 14 16 16 17 17 16 16 16 15 14 14 13 15 14 14 14 13 14 14
11 11 12 11 11 11 11 10 10 10 9 8 8 7 7 7 5 5 5 7 7 7 6 6 5 4 5 4 3 3 2 2 3 4 4 3 4 5 4 4 4 3 3 4 6 7 4 3 4 3 3 3 3 3 4 3 3 4 6 6 7 7 7 7 7 11 13 14 16 17 17 17 17 16 14 14 14 13 14 14 15 15 15 15 15
12 12 13 12 12 12 12 11 10 10 10 9 10 9 9 9 7 6 6 7 8 7 6 5 4 4 4 3 4 3 2 4 4 4 4 3 3 4 4 6 5 4 4 5 4 5 8 3 4 4 4 3 4 2 4 4 4 3 3 3 3 4 4 4 5 6 11 11 12 15 17 16 14 14 15 16 16 16 16 17 17 17 16 16 15
12 12 13 13 13 13 12 12 11 12 11 11 9 9 8 8 8 7 7 6 7 8 8 7 6 5 4 3 3 3 4 4 4 5 4 4 3 3 3 2 2 3 4 4 3 5 6 8 4 4 2 2 2 2 3 3 3 3 4 5 5 4 5 6 6 5 9 10 10 9 12 14 15 15 16 17 17 17 17 17 18 18 17 17 17
12 11 13 13 13 14 13 12 12 12 12 11 10 10 10 10 11 10 8 8 7 7 7 7 7 5 5 5 5 5 5 5 4 4 4 4 4 3 3 3 3 4 3 3 3 5 4 7 6 5 4 3 2 3 3 3 4 4 4 4 5 5 5 5 5 6 8 12 13 14 14 15 16 16 17 17 17 17 18 18 18 18 18 18 19
13 12 12 12 12 13 13 14 13 13 14 13 12 12 11 12 12 10 9 9 8 8 8 7 7 6 6 5 5 6 4 4 4 5 4 5 5 4 3 3 3 3 3 2 2 2 3 6 7 5 4 4 4 4 3 4 3 3 3 5 4 5 6 6 6 6 8 11 13 15 15 16 17 17 17 17 18 18 18 18 18 18 19 19 19
13 14 14 12 12 13 13 13 13 13 13 13 13 13 13 11 10 10 9 9 9 8 8 7 7 5 5 4 4 4 3 4 5 5 4 5 4 4 4 4 3 2 2 2 0 2 3 5 6 7 5 5 3 4 3 3 3 3 4 5 6 6 5 5 4 4 4 4 4 6 10 13 15 17 17 17 19 20 19 18 18 18 19 19 19
16 16 14 14 12 13 13 12 13 13 13 13 13 13 11 10 10 10 10 9 8 8 7 7 6 6 6 6 6 6 6 6 6 5 5 4 3 4 4 3 2 2 2 1 2 4 4 5 5 5 6 5 5 5 3 2 1 3 5 5 7 5 4 4 5 4 4 6 7 10 10 10 12 11 14 19 20 20 20 19 19 20 20 20 21
17 15 15 14 12 12 12 12 12 11 11 12 12 10 9 10 10 10 10 9 9 8 7 7 6 6 5 6 7 7 7 7 6 5 4 3 3 4 2 1 1 2 2 3 3 3 4 4 5 5 4 5 5 5 4 2 3 4 5 5 6 6 5 4 4 5 5 7 8 8 8 9 10 13 17 16 17 18 18 17 19 20 22 22 22
12 14 13 14 13 14 13 12 12 11 11 11 10 10 10 11 10 11 10 10 9 8 7 6 6 6 6 6 6 6 7 10 12 9 8 5 4 3 3 3 2 2 3 3 4 4 5 5 6 5 5 5 5 5 5 4 5 7 4 2 4 5 5 6 5 5 6 7 7 7 7 6 8 7 6 6 6 10 13 17 17 22 23 22 22
12 11 11 14 14 15 14 13 12 11 10 9 11 19 18 13 12 10 10 9 9 7 6 6 5 6 6 6 6 10 9 10 11 11 9 8 8 5 3 2 3 3 4 4 4 5 5 6 6 5 6 6 6 5 4 3 4 3 2 2 4 5 5 6 6 5 5 6 6 7 6 4 6 6 5 7 6 8 7 8 9 11 13 17 19
12 11 10 14 15 15 15 14 14 11 10 10 17 19 16 16 12 10 10 9 7 6 4 3 4 4 5 6 6 6 8 6 7 9 6 5 3 3 3 3 4 4 5 6 6 5 5 5 5 5 6 6 5 4 4 5 3 3 4 3 4 4 5 7 8 5 3 6 5 6 6 4 5 7 7 8 9 10 9 10 14 16 17 15 14
11 10 11 13 14 14 13 13 14 12 11 13 17 18 17 17 14 10 9 8 7 6 6 6 4 5 7 6 5 5 4 7 5 5 5 7 6 5 5 6 7 8 8 6 6 5 5 5 6 7 6 6 6 4 4 3 3 4 4 4 5 5 6 6 6 7 4 4 7 7 9 5 6 7 9 9 9 9 10 12 15 16 17 18 18
10 11 11 12 13 12 12 13 12 12 11 13 17 19 18 18 16 13 8 8 9 9 8 7 7 7 7 6 5 4 2 6 5 4 4 4 5 7 7 7 8 10 10 10 9 8 6 7 7 8 7 5 5 3 2 2 3 5 5 5 5 4 5 6 6 6 6 5 9 10 12 7 5 7 10 10 10 10 11 13 17 17 17 17 17
9 10 11 11 10 11 11 11 11 11 11 12 20 19 17 17 17 13 8 9 8 7 6 6 8 8 8 6 6 3 3 2 2 4 3 3 3 4 5 5 5 8 10 12 13 15 13 9 8 7 7 5 6 3 3 3 3 4 5 6 5 6 7 8 8 9 8 6 8 10 11 8 6 8 10 10 9 10 10 13 17 17 16 15 14
8 10 9 10 10 10 11 11 11 11 10 16 19 21 19 18 18 13 7 6 8 7 6 6 8 8 7 6 6 5 3 2 5 6 5 5 4 4 4 5 6 5 6 6 7 7 6 6 9 9 8 6 5 4 4 2 2 3 4 6 7 8 9 9 9 8 9 8 9 8 12 8 5 7 8 7 6 6 5 9 12 12 12 13 13
5 6 6 8 10 11 11 11 12 12 10 18 21 21 19 18 16 11 8 7 7 7 7 9 10 8 6 5 5 6 7 8 8 10 8 5 5 6 6 6 6 6 6 6 3 4 5 6 6 6 3 1 3 3 4 5 5 5 5 5 6 8 8 7 8 7 8 6 6 7 8 7 5 9 9 8 7 8 5 4 9 14 18 20 21
6 7 7 8 9 10 11 11 12 12 8 17 20 21 20 19 13 9 9 8 7 8 8 8 8 7 7 6 5 7 6 9 12 14 12 8 5 5 5 5 5 5 4 3 5 10 10 6 5 5 4 5 7 8 9 10 8 7 4 5 9 9 7 8 8 7 6 6 7 9 8 8 4 5 8 6 5 7 7 7 7 12 16 17 17
8 9 8 8 9 9 11 12 13 11 7 14 19 19 19 19 17 12 9 9 8 8 8 8 7 6 8 13 8 7 9 8 12 13 11 7 5 5 5 6 6 5 4 5 5 1 3 2 4 6 7 7 8 11 12 14 16 9 6 10 11 8 7 7 8 7 7 7 8 6 5 5 5 4 8 7 8 7 8 8 9 9 13 13 16
6 7 8 8 8 8 10 10 12 12 9 12 17 19 19 18 16 10 9 8 8 8 8 8 8 6 6 8 8 7 5 7 11 10 9 6 4 4 4 4 5 5 3 3 3 2 1 2 3 3 5 7 7 8 10 17 18 15 10 12 10 8 8 8 8 8 8 6 3 6 6 5 7 7 7 9 10 7 6 8 9 8 9 9 10
Wind_Direction
243 197 176 127 171 151 137 130 141 106 233 214 130 162 183 229 324 353 331 3 321 305 274 288 271 199 238 231 197 254 197 201 247 233 195 139 154 175 168 163 167 170 177 189 192 195 197 200 206 212 220 231 226 237 227 227 215 203 200 201 204 209 208 212 210 209 209 209 211 211 213 216 215 218 219 221 224 229 231 234 239 247 248 246 249
127 79 107 46 91 83 89 56 58 101 275 33 356 65 334 21 4 20 333 300 259 277 267 258 251 198 194 206 194 204 196 214 239 234 91 108 147 130 177 165 165 169 176 180 197 198 200 206 208 213 220 222 221 208 260 241 309 7 5 320 271 213 210 210 210 210 210 212 212 212 213 214 215 218 219 221 224 226 231 234 236 240 248 251 250
122 119 97 99 106 101 118 121 141 184 354 37 344 26 345 6 50 335 304 282 287 269 259 263 260 231 207 193 215 218 176 211 252 99 70 46 127 153 183 168 166 171 175 182 188 199 204 207 209 213 218 225 227 197 217 247 35 130 186 217 226 258 236 211 211 213 213 214 215 217 217 216 218 219 223 223 224 227 231 234 236 237 239 246 253
114 144 117 154 153 152 141 192 119 99 67 106 3 328 283 22 236 226 244 263 247 243 232 228 245 287 12 215 197 191 178 177 231 124 157 150 146 156 160 170 173 172 178 181 187 191 203 210 212 212 215 222 230 197 191 166 158 223 212 212 229 239 247 259 239 222 219 217 219 222 223 225 224 224 224 227 228 227 230 236 238 240 242 242 243
132 166 178 142 124 158 167 147 126 120 97 14 279 256 250 218 239 250 251 243 247 247 241 273 338 323 294 319 17 33 32 351 357 353 77 62 147 133 202 172 174 177 181 185 190 188 196 208 211 209 211 217 220 222 204 174 164 218 225 227 224 229 243 257 266 252 250 247 230 224 224 229 230 232 231 232 234 235 236 237 241 244 247 248 246
144 189 151 167 149 206 174 146 116 84 110 184 235 227 219 223 246 230 234 254 264 273 9 297 264 348 11 10 345 31 23 282 280 156 168 185 178 169 181 174 162 172 183 190 193 192 196 200 207 211 210 213 211 214 204 198 184 204 222 224 227 223 224 226 232 236 241 247 255 261 241 226 227 230 234 237 239 241 242 243 243 245 247 250 252
165 169 185 201 160 170 161 126 118 152 154 203 242 255 210 216 234 227 274 268 347 347 283 298 342 248 164 51 1 4 344 328 4 13 238 236 127 46 7 144 166 172 168 168 199 197 198 197 203 207 204 206 188 210 204 208 209 203 215 227 231 232 235 233 235 240 242 244 248 250 256 262 238 231 232 233 235 237 240 244 247 248 248 249 252
184 172 186 195 208 159 149 143 120 116 209 235 232 231 230 231 27 359 356 350 316 281 286 284 350 298 65 142 164 136 304 4 8 168 317 1 316 162 148 99 80 111 175 155 161 197 203 204 203 209 208 204 191 187 204 207 214 219 218 227 231 228 236 242 239 241 248 251 252 253 256 255 259 249 242 239 241 242 242 243 245 248 250 250 252
211 184 190 205 207 201 109 135 141 168 211 222 216 229 263 55 55 31 320 3 313 294 308 36 272 285 260 200 166 123 186 130 270 279 13 341 38 254 92 46 118 48 44 136 156 146 185 208 213 214 217 215 208 195 201 207 212 216 218 225 235 235 235 240 242 244 247 251 251 251 252 257 254 252 250 248 245 245 246 247 247 247 247 249 250
175 236 192 216 205 147 121 129 145 181 218 236 238 218 114 83 51 236 18 325 279 295 0 358 3 351 325 351 72 54 35 329 126 324 216 186 214 62 38 118 66 121 158 102 128 126 144 193 218 221 237 232 221 223 216 218 225 230 221 228 237 241 240 242 247 248 247 245 247 252 253 256 258 252 249 250 251 250 247 245 245 247 251 251 249
168 202 225 204 200 91 110 145 159 194 222 253 254 55 64 72 6 357 226 264 322 329 337 33 327 314 329 0 31 71 66 309 280 327 358 309 56 80 65 10 70 73 120 136 114 132 145 149 164 169 197 220 224 226 225 206 218 213 216 226 230 240 248 248 249 251 251 250 251 249 252 255 261 258 248 245 243 247 250 252 252 248 247 249 250
178 196 216 192 157 124 150 164 189 195 187 265 39 51 54 49 330 23 355 329 13 338 331 9 345 339 306 295 267 169 174 121 263 209 189 176 88 24 128 145 183 107 78 73 147 154 154 148 134 166 216 154 185 54 218 166 181 212 228 229 238 239 243 248 249 248 252 257 253 252 250 247 245 251 250 246 245 242 242 245 250 252 251 250 250
183 199 189 209 139 153 148 183 193 183 131 292 97 75 113 70 210 231 302 16 326 300 263 272 264 289 258 247 258 209 173 141 238 227 200 123 121 146 126 85 39 81 97 154 95 320 142 153 149 121 143 129 120 106 100 117 158 186 219 241 238 245 249 257 256 253 256 263 268 259 256 252 251 251 249 247 247 247 245 242 243 244 246 247 248
180 192 202 200 143 162 168 177 189 144 135 186 70 157 195 124 58 318 260 235 198 270 38 306 236 229 297 335 185 145 19 177 196 240 89 100 108 122 84 82 98 40 35 140 212 180 99 87 89 120 144 140 128 119 121 102 89 92 86 97 73 4 292 276 274 269 274 270 269 271 264 268 267 259 256 254 252 251 251 247 244 242 242 244 247
193 207 213 250 168 168 167 159 175 120 117 118 224 201 95 85 303 53 277 299 231 113 187 0 332 360 307 264 210 146 335 283 260 179 245 143 144 101 111 110 100 56 293 61 86 42 70 81 75 81 70 129 138 134 129 122 112 101 94 88 92 101 90 66 50 48 283 277 283 278 283 260 252 253 255 256 252 250 250 250 248 246 247 250 252
188 185 175 167 184 159 159 147 151 123 127 153 243 219 133 88 234 233 325 299 300 186 340 97 38 6 9 352 321 354 115 291 258 283 267 208 123 116 97 104 57 44 5 46 13 57 83 77 109 110 96 86 131 124 129 131 117 101 96 91 76 68 65 62 54 59 66 72 77 112 247 255 253 254 255 260 259 253 250 251 250 250 252 256 255
144 244 156 185 169 167 154 160 158 139 160 189 227 266 109 192 125 60 278 313 346 305 132 93 76 36 8 340 359 49 342 355 354 300 337 71 110 108 107 100 113 91 9 81 245 3 99 96 94 58 71 64 112 134 139 139 127 111 83 82 79 73 68 73 74 75 66 65 62 59 58 43 329 264 263 262 263 270 261 256 254 252 253 256 258
188 187 162 157 164 171 168 162 156 130 153 192 122 65 82 267 180 150 245 72 13 338 68 21 74 68 56 147 158 174 325 332 338 322 319 10 40 143 129 114 127 131 191 148 186 320 114 136 105 89 85 81 79 82 72 74 76 80 100 89 89 76 70 66 70 69 69 64 68 72 61 34 4 310 308 310 300 274 271 266 263 259 258 257 258
175 180 171 171 152 165 159 151 154 150 156 180 164 186 164 205 90 124 55 40 48 334 331 126 34 270 106 28 44 26 19 359 16 313 17 334 13 319 118 152 148 153 208 171 125 90 67 63 110 106 85 78 89 102 104 99 108 114 123 116 101 93 78 77 71 74 65 63 63 47 16 8 324 315 315 312 308 311 302 284 275 267 259 257 257
177 163 182 158 145 157 153 181 190 159 165 126 72 238 48 65 58 53 60 17 14 358 353 37 36 193 42 10 36 89 281 174 62 28 25 337 326 329 99 70 129 166 210 91 144 134 129 125 140 129 134 124 119 136 126 142 139 132 134 138 130 122 113 52 35 47 71 75 74 56 327 319 312 302 307 307 314 311 312 312 300 276 265 262 260
197 146 162 148 143 160 158 192 152 86 119 135 182 144 112 93 81 73 5 143 337 34 2 5 10 42 8 87 274 282 26 315 162 201 57 28 324 357 250 243 177 97 64 298 58 35 124 116 78 13 150 151 157 141 143 151 152 137 149 159 159 158 162 177 228 258 278 237 217 214 243 285 290 296 297 301 304 307 305 300 298 301 303 297 282
174 157 157 177 161 170 151 142 130 152 137 175 196 112 110 132 146 170 195 141 63 282 304 43 43 351 62 67 0 329 248 266 305 250 199 93 223 290 286 254 129 20 18 63 74 141 272 128 171 185 176 158 178 173 153 149 144 149 164 174 188 188 180 191 209 229 246 269 264 253 248 254 270 287 293 297 303 302 303 302 301 298 295 296 300
171 171 166 158 152 134 153 142 156 120 149 160 153 124 147 157 149 152 120 87 136 231 83 344 19 359 49 149 267 272 48 25 325 346 79 299 4 314 318 10 6 153 153 135 152 356 225 199 190 192 160 214 178 164 155 132 154 158 170 179 192 203 203 205 215 225 232 249 260 263 264 261 264 272 285 293 296 299 300 304 304 304 301 298 297
179 150 171 166 140 142 157 130 143 128 154 209 117 179 149 164 141 121 141 184 136 196 104 210 217 182 261 188 217 230 192 193 344 34 84 80 50 342 317 337 359 336 99 106 112 240 285 322 192 220 166 136 91 111 128 135 189 181 177 191 202 205 206 211 213 222 229 232 243 257 265 270 273 276 280 286 288 290 295 295 298 300 301 300 300
178 149 164 160 135 141 150 133 148 146 154 175 208 159 134 159 138 156 160 169 160 168 171 240 210 228 227 260 187 288 80 141 212 278 73 131 157 232 275 338 308 300 338 113 184 184 187 254 157 206 165 169 182 156 162 174 186 177 186 202 206 209 215 214 215 219 220 224 232 241 251 257 258 264 269 272 277 283 288 290 290 292 294 295 296
163 179 152 162 139 144 153 151 146 149 157 169 198 139 161 145 159 161 172 159 185 179 185 206 190 235 219 290 311 1 304 205 179 171 223 167 167 219 238 2 317 295 294 242 194 84 237 238 237 195 190 186 179 185 191 180 219 182 198 218 197 213 218 221 223 221 221 222 222 228 240 250 258 259 261 264 267 271 276 282 287 289 291 292 293
161 169 157 155 144 154 158 164 151 163 166 188 164 153 169 190 155 179 172 159 175 178 177 210 210 180 203 115 338 266 258 290 300 266 297 323 25 32 27 11 319 293 286 257 264 211 244 210 220 233 182 175 191 188 180 185 214 181 195 213 232 238 244 235 228 226 224 225 225 225 228 235 243 252 258 261 262 263 264 269 278 283 286 288 290
160 160 173 157 152 156 158 169 162 165 177 193 172 161 166 198 185 176 184 159 170 177 200 212 175 221 176 180 159 284 315 319 335 346 20 26 55 50 103 145 237 281 301 314 303 283 258 267 213 203 175 174 192 179 178 200 210 202 191 221 237 246 253 254 237 226 225 227 231 231 229 229 233 239 247 254 260 262 261 259 262 269 275 278 281
166 164 175 160 160 157 162 170 168 170 177 188 182 166 163 176 197 197 207 184 161 181 178 193 206 204 182 196 204 191 235 301 330 321 329 64 46 66 119 245 208 260 264 265 274 289 309 332 348 255 283 106 169 193 190 200 214 222 225 232 243 237 258 253 232 228 226 229 234 238 239 238 237 238 241 244 248 254 261 264 261 258 263 269 272
167 173 168 167 163 164 162 175 170 177 176 183 192 178 166 174 182 198 201 206 152 170 183 182 207 235 235 227 171 182 194 190 210 218 207 190 198 197 211 213 221 229 243 263 270 269 295 316 283 263 214 251 209 194 176 209 224 236 251 256 254 256 255 256 239 232 231 232 235 238 240 241 242 245 247 246 246 248 252 257 260 261 259 260 268
169 167 165 169 168 170 167 174 176 178 182 183 181 191 175 173 182 195 193 185 172 172 165 180 247 236 212 226 165 213 208 251 289 298 159 172 191 205 214 214 214 216 231 249 274 241 234 257 267 302 269 228 214 249 257 220 216 223 233 236 244 254 268 273 265 237 233 234 235 238 239 240 242 245 247 246 244 241 244 249 254 259 264 266 267
173 166 168 172 173 175 174 181 180 187 183 179 173 187 178 178 186 188 193 177 179 183 173 191 214 198 189 201 208 207 207 194 189 218 225 201 227 238 232 217 218 220 209 229 247 270 233 262 277 273 251 255 215 217 238 247 231 223 231 243 252 261 264 264 262 254 237 231 232 235 241 245 247 246 246 245 244 238 238 240 247 254 258 264 268
175 169 172 174 176 177 181 184 184 183 184 179 174 181 181 186 185 197 197 187 190 193 192 186 205 191 179 193 209 197 180 201 193 222 222 214 207 213 210 219 235 233 235 228 246 269 265 225 246 257 273 274 264 212 228 233 240 231 217 226 237 243 248 248 251 252 254 244 237 237 241 245 248 250 249 247 247 242 242 240 244 246 250 255 262
179 175 176 176 177 177 181 184 184 178 177 180 181 180 181 180 191 194 211 201 194 197 187 187 196 195 188 195 199 213 210 210 221 228 233 228 226 223 214 206 210 208 201 241 247 256 280 258 232 236 258 243 268 229 244 229 234 231 240 243 237 241 249 253 259 264 264 260 243 238 240 245 249 249 244 242 239 238 239 241 243 244 245 246 249
182 180 178 180 177 177 181 186 179 175 176 182 184 181 175 176 187 199 211 213 194 192 183 183 191 187 197 205 216 217 212 218 221 228 232 239 236 236 244 242 247 223 218 223 247 264 273 279 274 274 255 241 252 283 286 272 266 241 241 242 245 246 245 250 253 258 264 272 274 247 237 237 237 238 240 239 238 238 239 241 242 245 246 246 244
182 181 179 182 179 179 182 184 180 177 176 182 179 178 179 178 190 200 205 208 209 196 188 190 192 191 194 205 214 222 218 218 215 221 220 222 224 217 219 236 242 251 248 236 237 256 270 285 288 279 281 279 265 262 269 275 272 274 257 250 237 241 244 244 244 249 254 254 258 256 246 238 236 237 238 239 239 239 239 239 240 241 244 245 244
182 178 179 184 182 182 185 185 180 180 180 181 176 180 186 186 186 194 201 204 206 200 197 191 193 188 196 208 216 212 220 224 228 224 216 219 217 210 219 235 236 246 253 252 263 253 273 280 287 279 285 284 278 272 266 276 278 279 291 280 270 255 248 243 250 253 262 254 248 250 253 249 242 241 241 240 240 242 242 241 241 242 243 245 248
180 182 181 184 183 186 189 186 183 183 182 182 178 182 188 184 182 192 200 206 201 202 198 193 192 190 194 218 224 244 239 232 228 224 217 223 219 217 220 219 227 245 262 264 192 275 259 263 273 288 288 284 287 276 277 282 304 305 297 293 290 280 273 269 261 274 274 271 265 249 248 250 251 248 246 244 243 244 247 249 250 249 248 249 249
189 188 184 184 182 185 191 187 186 186 182 183 181 183 185 182 185 189 200 204 202 202 203 193 197 195 205 205 217 218 226 227 230 229 222 219 231 247 236 237 239 239 242 167 226 244 250 263 262 260 274 267 262 283 272 260 204 238 268 282 284 274 262 262 273 266 273 280 278 275 270 265 261 256 241 241 245 247 247 247 250 253 253 251 250
199 194 186 182 177 184 190 190 189 186 184 184 184 180 179 188 191 188 192 198 205 205 198 195 193 209 208 220 224 214 214 222 223 225 227 225 230 239 221 128 260 254 248 249 247 247 254 262 266 275 265 276 277 263 262 220 257 259 233 242 265 278 281 272 265 277 275 275 273 271 270 266 262 259 260 258 253 250 249 251 251 252 254 253 250
198 193 187 180 177 184 188 188 187 187 189 189 182 175 184 196 192 188 189 196 204 202 198 189 197 206 220 228 241 228 207 208 207 212 211 208 209 211 184 191 204 237 263 262 262 263 264 264 271 272 277 277 273 277 273 255 249 264 255 232 263 279 285 288 276 258 263 266 266 272 273 269 270 269 277 271 260 257 251 245 249 251 251 251 252
192 200 183 174 181 183 184 185 185 185 189 189 177 182 193 186 187 185 186 196 198 195 189 198 201 215 225 229 231 234 239 236 218 210 205 205 213 223 238 234 231 233 239 254 258 262 265 264 263 272 277 276 282 278 277 274 279 276 264 247 280 283 286 279 272 256 256 258 270 271 268 270 283 290 288 286 284 274 278 272 270 264 255 250 250
192 193 181 175 183 185 185 182 181 185 187 190 180 189 193 189 184 181 186 188 187 171 174 186 220 233 239 233 229 222 223 192 196 199 187 196 201 222 231 230 244 247 264 261 261 264 271 272 275 273 272 277 280 290 291 297 302 324 305 276 253 275 281 289 291 290 263 284 280 286 279 275 288 290 288 282 278 274 271 270 273 275 275 269 256
192 188 188 181 180 180 182 181 182 186 189 191 182 183 190 195 186 180 179 178 172 171 161 192 211 239 243 238 223 223 215 224 213 174 173 192 202 212 226 241 247 239 229 236 253 264 263 270 272 267 269 271 281 283 293 314 330 315 303 297 286 281 281 279 282 284 294 296 294 295 285 282 283 276 276 270 268 267 261 258 259 262 261 261 265
188 191 188 180 180 178 173 178 180 185 192 184 180 184 189 192 186 180 175 171 179 184 176 182 207 224 227 226 237 226 186 166 157 197 196 207 204 214 236 246 250 245 238 227 225 234 254 256 260 261 255 270 279 287 314 322 324 301 299 292 299 297 291 287 284 292 300 320 303 284 279 277 265 268 268 264 262 261 260 255 254 255 255 257 261
197 191 185 180 170 168 168 173 180 188 192 173 181 183 189 187 183 183 177 175 168 171 171 198 217 219 217 218 211 160 119 206 208 192 194 217 216 213 217 222 230 235 227 222 224 230 234 241 251 264 272 278 271 291 306 297 279 283 299 296 299 291 285 278 281 278 277 274 272 281 277 272 254 259 262 263 258 259 259 258 260 261 263 264 264
192 191 181 169 168 166 167 176 186 190 198 173 178 181 184 185 184 182 173 164 173 182 188 218 232 223 211 204 189 166 143 217 224 197 196 212 216 231 243 253 255 252 249 233 222 220 222 226 236 248 261 263 258 248 258 258 275 272 269 276 274 270 270 271 271 269 273 258 257 261 272 273 252 262 266 270 265 264 271 282 281 281 281 282 280
157 139 150 156 161 168 174 177 186 197 190 173 179 179 182 187 180 181 180 177 183 189 199 213 223 225 218 211 148 151 174 214 236 220 208 197 203 215 224 234 243 251 259 262 239 203 220 207 211 233 241 132 142 215 237 252 257 255 259 257 258 256 263 271 268 268 265 257 245 260 274 280 272 277 279 278 281 281 283 283 294 293 289 283 279
154 161 162 168 170 173 180 182 190 197 179 177 175 179 181 182 176 186 190 193 195 197 214 217 216 216 214 211 184 158 186 202 211 196 197 193 217 228 241 254 267 278 280 286 232 223 230 218 150 159 189 249 271 271 257 243 238 239 242 258 263 266 265 264 264 261 265 281 271 257 264 282 283 283 291 293 297 297 298 296 289 281 274 270 269
176 177 170 177 182 189 194 195 193 190 159 175 175 177 180 178 179 185 192 194 198 206 212 220 216 213 222 221 208 175 196 209 168 180 183 179 207 232 246 255 257 259 267 274 286 75 89 134 225 225 226 224 228 245 253 255 252 232 201 237 247 251 256 256 270 271 276 276 274 279 294 289 322 324 314 309 302 287 288 284 280 276 275 274 272
193 174 180 181 186 191 199 197 186 182 164 176 180 179 182 177 181 188 188 195 203 207 208 215 216 213 210 226 202 185 187 141 147 150 161 175 207 227 243 253 256 260 268 7 13 354 329 269 256 261 259 247 240 237 247 250 249 242 220 235 247 244 255 267 278 290 289 271 285 22 341 325 329 308 315 312 298 290 282 282 282 280 277 279 278